Theta_e
319 320 320 320 320 320 320 321 321 322 323 323 323 322 322 322 321 312 306 313 316 333 332 319 311 308 307 305 305 302 296 293 297 305 308 313 312 325 329 326 327 328 325 327 333
319 319 319 319 319 319 319 320 320 321 322 322 322 321 322 322 311 309 324 336 338 338 311 306 304 305 303 302 303 299 294 296 301 308 309 310 312 322 324 324 324 324 327 330 333
318 318 319 319 319 318 319 319 320 320 321 321 321 321 321 320 301 305 337 337 340 334 311 307 306 305 305 299 299 296 296 299 302 305 309 304 305 322 322 318 324 321 323 328 330
319 318 318 319 318 318 318 319 319 320 320 320 321 321 321 312 292 305 341 341 341 316 307 306 303 298 301 297 299 296 300 301 302 303 302 302 304 316 322 322 328 326 326 327 328
319 318 318 318 317 317 317 318 318 319 319 319 321 322 312 299 300 315 343 343 324 308 305 304 300 298 298 297 298 296 299 301 302 302 300 303 308 314 321 325 328 326 325 326 327
319 319 318 318 317 317 316 316 316 317 318 319 322 322 307 295 303 322 318 309 307 303 302 305 304 302 297 296 297 299 299 300 300 301 299 309 313 318 320 325 323 323 322 325 326
319 319 318 318 317 317 316 315 315 315 318 321 323 318 304 302 309 314 310 302 303 304 302 305 307 301 298 294 298 299 297 299 299 300 306 315 311 313 323 324 321 322 323 323 325
320 318 318 318 317 317 316 315 314 316 319 323 323 314 300 307 309 308 308 305 303 304 308 309 305 299 296 297 299 295 295 292 298 300 312 312 305 312 324 322 320 321 323 324 324
320 318 318 318 317 316 315 314 314 318 322 323 310 303 299 314 310 313 309 307 305 303 305 312 302 297 297 294 291 292 289 290 296 299 306 304 302 312 324 322 321 322 323 324 324
320 318 317 317 317 315 313 312 313 317 319 320 317 302 301 303 308 310 309 310 306 304 303 300 296 293 291 290 286 288 289 291 293 297 299 297 304 310 321 323 322 322 323 324 325
320 319 317 316 316 314 309 303 298 298 304 299 300 302 304 307 307 307 310 308 306 302 296 294 292 290 292 293 293 293 292 292 295 298 295 295 296 301 313 321 321 321 322 323 325
319 319 318 316 315 313 304 299 302 302 297 306 305 304 306 304 301 303 310 304 302 297 295 292 290 294 296 295 295 293 291 291 296 297 296 296 298 305 311 318 322 322 323 323 323
317 317 317 316 314 305 303 304 308 305 294 300 304 303 304 304 300 300 306 304 300 297 294 291 294 297 297 294 294 291 290 291 293 296 296 295 294 299 312 314 317 319 321 322 322
316 317 316 314 299 301 301 308 308 307 288 292 296 300 300 301 297 304 309 306 299 298 294 293 296 296 293 294 294 288 295 296 294 292 289 293 288 293 301 309 314 315 316 317 319
315 317 316 313 299 295 302 307 306 297 279 294 297 302 300 298 300 302 308 305 299 298 296 295 295 293 292 295 297 295 297 296 295 290 288 291 288 291 302 307 315 321 321 317 320
314 315 315 308 305 302 307 303 299 288 281 292 300 296 295 297 300 301 304 307 305 299 298 297 300 300 299 299 299 300 296 293 290 288 285 289 289 290 301 309 319 321 323 326 326
313 314 313 309 295 304 301 299 288 282 294 292 293 295 293 293 297 299 299 298 296 292 291 297 298 301 303 297 297 295 290 285 285 284 285 291 297 300 313 322 321 317 317 319 321
312 311 312 313 308 304 300 293 282 290 291 296 297 295 293 294 295 296 296 295 297 297 291 291 290 299 302 300 295 291 291 286 283 283 286 293 294 303 319 322 321 317 315 316 316
309 307 310 309 313 303 293 285 289 291 296 297 296 292 291 295 295 295 294 294 297 298 292 291 293 302 303 299 298 292 290 291 288 286 286 290 300 308 315 316 319 317 317 316 316
306 304 305 310 310 300 290 287 293 298 300 298 291 294 289 292 292 293 292 296 297 300 299 295 291 299 303 300 298 295 297 290 288 283 282 291 294 298 307 311 316 316 315 315 317
304 299 302 306 308 298 283 285 296 302 302 297 295 293 294 292 292 291 293 297 300 299 300 296 293 295 298 295 294 294 292 290 290 288 284 286 294 308 309 311 314 316 318 318 319
302 293 301 307 296 296 288 294 298 299 303 301 299 296 295 295 293 292 294 297 302 301 296 297 293 290 294 301 302 295 292 291 288 287 288 292 295 314 312 313 315 321 323 327 329
298 298 304 304 286 288 293 294 297 299 300 300 298 298 298 294 290 294 295 301 303 301 298 298 291 287 293 297 301 300 299 293 291 292 290 292 296 317 318 318 320 322 323 325 326
297 291 298 296 293 288 291 289 289 301 299 301 299 300 296 292 294 294 296 306 304 303 314 305 292 291 289 293 298 298 299 298 294 289 294 296 306 313 316 319 321 321 322 322 323
299 292 296 287 290 292 291 292 291 293 300 301 296 296 294 291 293 297 302 302 306 313 302 298 292 294 296 303 305 304 303 301 296 297 294 303 306 311 316 320 323 323 322 321 320
297 297 296 293 296 293 294 290 293 293 297 296 294 298 296 291 295 297 299 299 300 301 298 297 293 294 296 305 306 303 305 306 305 305 305 305 305 317 317 318 317 318 320 318 319
304 307 300 295 295 294 291 292 292 300 300 300 300 298 296 299 302 302 304 301 303 300 297 295 294 291 290 302 300 295 303 305 306 307 305 300 305 315 313 313 314 316 317 318 319
Wind_Speed
15 16 18 18 18 17 18 17 16 16 16 15 19 22 21 18 13 3 5 6 2 12 6 7 3 2 3 2 2 4 5 1 3 1 2 1 4 3 1 6 2 5 6 5 17
14 15 16 17 19 19 19 18 17 17 16 17 17 21 22 18 3 3 8 3 6 12 7 7 4 4 2 1 1 5 4 6 4 3 1 1 3 8 3 3 3 4 6 16 17
14 15 16 16 18 19 20 20 19 19 17 16 18 20 20 12 5 3 1 6 10 6 6 4 5 4 2 2 3 3 5 5 4 7 5 3 3 9 8 5 8 9 14 16 16
14 15 15 16 18 18 20 20 20 20 19 18 16 18 20 4 0 3 4 8 9 4 5 5 4 4 3 4 4 2 5 4 5 4 3 4 2 6 8 9 5 13 20 16 17
12 15 15 15 16 19 19 21 22 21 19 17 16 13 7 5 10 1 4 7 5 5 6 5 5 5 5 4 4 4 4 5 5 9 8 1 7 7 9 1 9 17 17 16 16
13 13 15 16 17 18 20 21 20 20 21 17 14 7 1 5 4 4 5 4 5 5 5 5 8 6 4 2 4 4 4 6 5 8 4 2 1 7 5 9 9 16 16 14 15
15 13 13 14 16 18 19 22 24 21 20 19 10 3 2 16 5 3 7 5 5 5 5 3 2 3 4 2 3 2 5 6 3 2 2 6 1 8 5 8 10 12 14 13 15
14 14 15 15 16 18 20 23 25 24 20 11 3 2 8 4 1 3 4 3 3 3 1 2 2 1 2 1 6 2 5 4 6 4 3 5 9 2 7 12 10 11 11 13 14
13 13 14 16 17 19 20 26 28 17 9 5 3 2 10 6 3 4 6 2 5 4 3 1 2 1 4 5 5 6 3 3 5 4 4 3 6 4 9 10 9 10 10 12 12
12 11 11 14 17 19 23 28 21 4 3 4 3 3 4 3 6 5 5 3 3 5 2 3 5 3 4 5 6 4 2 2 4 3 6 3 9 4 7 12 14 10 10 12 13
12 11 11 12 14 15 12 8 8 6 7 5 7 9 18 8 5 2 2 5 2 7 3 1 4 6 7 6 3 2 0 2 4 4 2 4 8 11 6 7 10 12 12 14 16
13 10 11 12 14 13 1 3 7 2 11 10 17 14 13 3 5 4 6 6 4 5 2 5 5 7 4 4 3 2 0 5 7 2 3 2 9 3 5 13 16 11 12 15 13
11 8 10 11 13 4 1 2 3 1 4 10 8 8 7 13 10 10 7 4 4 5 5 6 3 5 6 4 4 3 5 4 6 7 4 4 8 6 4 3 4 8 7 10 13
10 8 8 12 2 3 2 6 6 3 4 10 6 9 5 11 5 9 9 7 2 10 9 5 5 5 4 4 7 4 10 6 3 4 4 2 5 7 12 9 5 8 8 9 13
9 8 6 2 3 3 3 8 7 2 5 4 4 1 5 11 7 6 6 5 9 6 7 8 4 5 4 7 8 9 7 8 5 4 2 4 5 8 7 12 18 17 18 17 9
8 8 2 2 0 6 8 10 2 5 10 7 4 5 6 5 4 5 6 4 6 6 1 7 2 3 8 5 9 4 4 7 6 4 2 4 4 6 7 8 18 17 16 14 9
8 8 5 4 3 4 6 3 3 6 4 4 1 3 4 5 5 6 9 7 8 7 4 3 4 5 5 3 2 5 6 4 3 3 5 1 8 4 7 10 8 12 14 13 11
8 5 4 3 1 4 4 4 7 6 10 5 4 1 8 6 5 3 7 7 2 6 5 6 3 7 4 9 8 6 8 7 5 5 4 4 3 4 4 6 7 7 7 9 12
4 0 2 3 7 3 4 4 12 6 3 6 9 4 5 6 6 4 7 9 8 6 6 6 5 3 5 4 7 4 3 3 10 2 4 3 1 4 2 6 10 13 13 15 13
1 1 4 5 7 3 4 5 6 3 5 3 2 3 5 7 6 7 8 6 8 9 4 3 3 2 1 4 5 5 6 4 4 5 3 3 2 3 6 9 12 14 13 12 12
2 2 4 9 7 1 5 7 5 5 6 4 4 5 4 3 7 6 9 2 10 7 7 6 2 5 2 1 8 3 1 7 6 4 7 5 4 4 5 4 6 7 6 8 9
3 2 1 8 4 3 3 5 2 10 4 3 3 4 2 8 5 8 13 10 11 11 10 5 6 2 2 6 3 3 5 6 7 3 2 5 4 3 5 4 3 4 6 8 9
1 2 2 1 5 5 3 3 4 4 2 3 4 3 5 4 4 6 7 4 8 10 10 7 0 3 8 7 2 7 4 5 6 5 3 7 5 1 2 1 2 6 6 7 9
2 1 1 2 2 2 9 6 7 6 7 5 8 9 8 4 9 6 3 0 10 8 7 11 4 8 8 8 4 4 3 5 6 5 6 4 8 3 3 1 4 6 8 9 8
3 4 5 3 6 3 5 7 9 6 8 5 5 6 0 6 10 5 2 3 6 6 6 7 5 3 3 4 6 4 5 3 4 5 4 10 9 7 4 3 4 4 6 9 9
1 3 2 3 5 12 8 7 6 10 6 4 9 6 6 6 7 10 1 4 7 2 5 3 2 4 7 5 9 10 8 11 7 5 9 11 5 5 4 5 7 8 8 8 7
2 2 1 4 5 9 15 7 15 7 11 18 13 12 15 18 17 20 10 5 10 10 5 5 8 4 4 4 5 6 4 3 4 3 6 7 6 8 5 6 5 5 6 7 7
Wind_Direction
333 334 334 333 333 333 330 333 334 332 334 335 328 325 327 329 318 113 244 214 207 147 96 107 90 125 80 97 125 122 66 225 246 197 336 112 80 11 30 118 174 165 149 164 127
331 328 328 329 327 330 329 330 331 331 333 329 331 322 324 335 329 279 253 157 163 150 100 131 139 118 71 103 27 95 113 213 227 222 224 257 161 171 134 141 229 90 59 125 131
324 323 324 322 327 329 327 328 329 327 328 329 326 321 323 326 337 283 25 179 166 184 132 107 112 120 112 147 183 158 184 201 229 228 212 270 270 183 141 219 204 176 147 146 145
319 320 321 321 324 323 323 322 323 321 324 324 324 320 321 309 20 346 19 158 171 167 100 110 106 109 128 177 175 148 223 221 262 258 275 224 191 189 178 217 165 156 161 153 164
312 320 321 322 319 320 321 318 317 316 316 320 319 319 339 350 253 8 100 122 109 136 157 141 133 134 166 196 155 180 244 209 236 280 249 317 224 205 211 48 98 142 160 170 175
318 320 321 320 318 316 317 315 309 312 312 315 314 314 160 294 247 144 133 146 142 132 167 151 179 193 147 214 176 213 232 269 266 256 242 121 297 148 232 106 122 150 172 179 186
311 313 314 314 315 315 316 314 311 309 308 309 304 211 163 238 129 140 170 191 184 167 155 227 174 131 132 217 233 268 312 341 307 322 47 123 341 236 123 128 144 176 181 185 199
304 310 316 317 319 319 319 313 304 307 307 303 168 172 242 247 212 153 175 250 171 202 166 192 179 78 186 228 20 42 46 9 292 325 159 76 263 58 146 141 170 194 200 194 200
299 307 314 318 321 320 319 311 300 307 298 148 110 145 267 310 290 266 154 201 140 157 255 166 101 101 29 91 17 359 191 223 324 347 127 89 274 251 171 158 186 197 210 220 218
296 302 310 317 322 324 325 302 293 291 149 191 249 4 274 295 290 296 175 207 139 134 127 124 58 87 39 79 210 219 195 229 183 302 20 257 260 249 216 179 195 200 210 220 225
293 304 311 315 320 330 343 345 11 350 19 263 251 276 287 269 282 301 118 112 53 59 154 82 101 202 205 188 170 170 202 284 182 253 253 222 268 265 206 206 211 211 206 225 228
295 301 313 318 318 330 330 42 80 219 300 259 246 242 244 70 300 304 141 130 133 179 159 28 233 206 156 159 162 128 282 285 289 179 208 342 298 243 199 226 217 213 220 229 241
290 298 307 314 320 23 354 264 357 33 243 283 216 220 203 163 211 251 165 146 143 147 182 160 246 133 145 166 173 199 179 227 228 344 355 12 318 338 339 331 219 225 232 238 243
304 305 309 318 46 299 256 311 313 212 351 272 242 259 161 139 233 193 178 141 152 191 148 206 243 161 150 199 149 259 202 195 164 72 224 71 260 30 336 335 332 340 298 271 254
309 288 302 65 289 320 308 313 299 99 328 247 207 174 167 172 149 212 172 82 172 175 125 238 177 130 154 209 162 228 154 175 161 162 97 308 87 304 353 341 339 341 317 298 259
304 286 273 117 151 255 310 307 86 53 248 302 165 167 141 239 160 117 143 112 153 141 188 218 254 181 195 182 187 132 78 46 53 85 47 263 119 328 358 321 326 339 343 350 8
301 294 175 158 227 319 314 16 80 190 301 270 316 159 190 184 189 145 152 159 156 147 199 351 244 254 161 249 124 102 70 26 19 27 201 23 58 228 327 356 1 344 338 347 12
290 293 218 206 75 8 10 67 199 205 243 293 313 186 185 152 234 117 122 155 197 116 125 147 299 178 167 187 183 164 157 149 165 177 213 26 71 311 358 310 324 330 314 348 4
289 183 234 198 213 93 81 194 200 211 254 324 318 187 220 203 158 136 166 180 173 157 153 136 258 253 212 160 129 171 172 164 106 354 79 140 52 272 297 333 351 348 353 358 353
205 249 220 193 154 110 103 244 239 222 333 334 290 26 212 194 146 136 174 190 179 179 157 194 148 243 10 104 47 129 152 77 9 118 133 23 79 226 339 337 342 355 351 343 352
143 217 244 150 150 248 189 221 293 271 12 359 346 327 301 289 159 167 188 262 169 187 153 149 100 289 38 62 169 109 83 53 109 104 150 142 252 233 255 306 324 342 354 359 10
160 213 287 151 144 165 198 192 255 276 28 313 277 238 294 352 301 176 199 198 178 140 152 193 141 161 261 299 253 139 142 128 119 209 68 121 236 248 253 334 315 33 43 46 42
168 272 18 74 179 200 245 234 267 310 94 335 310 22 37 338 327 232 201 214 147 144 156 185 210 69 360 349 13 75 81 96 103 91 176 131 227 254 176 47 94 64 52 49 45
50 281 342 315 240 193 180 205 223 225 254 255 267 292 300 289 200 277 248 320 166 169 143 110 125 146 174 200 154 106 100 115 102 109 165 192 148 139 174 347 25 49 52 51 46
179 222 155 219 252 246 311 202 199 223 214 272 293 209 334 310 322 223 263 128 45 132 90 114 142 112 58 108 93 82 59 122 114 138 132 170 142 153 129 83 48 60 36 28 24
250 246 181 260 189 197 227 256 205 216 268 210 237 295 310 215 253 298 257 194 163 58 104 43 118 122 48 47 95 83 47 72 45 103 73 115 101 108 95 76 44 27 26 25 13
274 306 239 221 194 186 217 225 210 221 222 230 253 281 289 284 267 251 222 290 154 139 124 101 131 92 148 162 130 53 354 48 99 34 129 150 167 140 135 92 44 21 19 3 353